CAPE
0 0 0 0 0 0 0 0 0 0 0 0 0 0 0 0 0 0 0 0 0 0 0 0 0 0 0 0 0 0 0 0 0 0 0 0 0 0 0 0 0 0 0 0
0 0 0 0 0 0 0 0 0 0 0 0 0 0 0 0 0 0 0 0 0 0 0 0 0 0 0 0 0 0 0 0 0 0 0 0 0 0 0 0 0 0 0 0
0 0 0 0 0 0 0 0 0 0 0 0 0 0 0 0 0 0 0 0 0 0 0 0 0 0 0 0 0 0 0 0 0 0 0 0 0 0 0 0 0 0 0 0
0 0 0 0 0 0 0 0 0 0 0 0 0 0 0 0 0 0 0 0 0 0 0 0 0 0 0 0 0 0 0 0 0 0 0 0 0 0 0 0 0 0 0 0
0 0 0 0 0 0 0 0 0 0 0 0 0 0 0 0 0 0 0 0 0 0 0 0 0 0 0 0 0 0 0 0 0 0 0 0 0 0 0 0 0 0 0 0
0 0 0 0 0 0 0 0 0 0 0 0 0 0 0 0 0 0 0 0 0 0 0 0 0 0 0 0 0 0 0 0 0 0 0 0 0 0 0 0 0 0 0 0
0 0 0 0 0 0 0 0 0 0 0 0 0 0 0 0 0 0 0 0 0 0 0 0 0 0 0 0 0 0 0 0 0 0 0 0 0 0 0 0 0 0 0 0
0 0 0 0 0 0 0 0 0 0 0 0 0 0 0 0 0 0 0 0 0 0 0 0 0 0 0 0 0 0 0 0 0 0 0 0 0 0 0 0 0 0 0 0
1 0 0 0 0 0 0 0 0 0 0 0 0 0 0 0 0 0 0 0 0 0 0 0 0 0 0 0 0 0 0 0 0 0 0 0 0 0 0 0 0 0 0 0
0 2 0 0 0 0 0 0 0 0 0 0 0 0 0 0 0 0 0 0 0 0 0 0 0 0 0 0 0 0 0 0 0 0 0 0 0 0 0 0 0 0 0 0
1 12 0 0 0 0 0 0 0 0 1 3 1 0 0 0 0 0 0 0 0 0 0 0 0 0 0 0 0 0 0 0 0 0 0 0 0 0 0 0 0 0 0 0
0 0 1 0 0 0 0 0 4 20 0 0 4 0 0 0 0 0 0 0 0 0 0 0 0 0 0 0 0 0 0 0 0 0 0 0 0 0 0 0 0 0 0 0
5 25 19 0 0 0 0 0 2 8 10 7 32 3 0 0 0 0 0 0 0 0 0 0 0 0 0 0 0 0 0 0 0 0 0 0 0 0 0 0 0 0 0 0
4 18 8 0 0 2 0 0 0 6 15 1 6 0 0 0 0 0 0 0 0 0 0 0 0 0 0 0 0 0 0 0 0 0 0 0 0 0 0 0 0 0 0 0
20 11 7 7 2 0 1 1 0 1 0 0 0 0 0 0 0 0 0 0 0 0 0 0 0 0 0 0 0 0 0 0 0 0 0 0 0 0 0 0 0 0 0 0
7 6 3 0 0 0 1 0 0 0 0 0 0 0 0 0 0 0 0 0 0 0 0 0 0 0 0 0 0 0 0 0 0 0 0 0 0 0 0 0 0 0 0 0
14 15 6 2 6 0 0 0 0 0 0 0 0 0 0 0 0 0 0 0 0 0 0 0 0 0 0 0 0 0 0 0 0 0 0 0 0 0 0 0 0 0 0 0
1 3 12 2 5 2 0 0 0 0 0 0 0 0 0 0 0 0 0 0 0 0 0 0 0 0 0 0 0 0 0 0 0 0 0 0 0 0 0 0 0 0 0 0
0 0 4 3 0 0 0 0 0 0 0 0 0 0 0 0 0 0 0 0 0 0 0 0 0 0 0 0 0 0 0 0 0 0 0 0 0 0 0 0 0 0 0 0
0 0 2 0 0 0 0 0 0 0 0 0 0 0 0 0 0 0 0 0 0 0 0 0 0 0 0 0 0 0 0 0 0 0 0 0 0 0 0 0 0 0 0 0
0 0 0 0 1 4 0 0 0 0 0 0 0 0 0 0 0 0 0 0 0 0 0 0 0 0 0 0 0 0 0 0 0 0 0 0 0 0 0 0 0 0 0 0
0 0 0 0 0 0 0 0 0 0 0 0 0 0 0 0 0 0 0 0 0 0 0 0 0 0 0 0 0 0 0 0 0 0 0 0 0 0 0 0 0 0 0 0
0 0 0 0 0 0 0 0 0 0 0 0 0 0 0 0 0 0 0 0 0 0 0 0 0 0 0 0 0 0 0 0 0 0 0 0 0 0 0 0 0 0 0 0
0 0 0 0 0 0 0 0 0 0 0 0 0 0 0 0 0 0 0 0 0 0 0 0 0 0 0 0 0 0 0 0 0 0 0 0 0 0 0 2 3 3 3 2
0 0 0 0 0 0 0 0 0 0 0 0 0 0 0 0 0 0 0 0 0 0 0 0 0 0 0 0 0 0 0 0 0 0 0 0 1 1 1 3 4 6 5 4
0 0 0 0 0 0 0 0 0 0 0 0 0 0 0 0 0 0 0 0 0 0 0 0 0 0 0 0 0 0 0 0 0 0 1 2 2 2 3 3 2 0 0 0
CIN
0 0 0 0 0 0 0 0 0 0 0 0 0 0 0 0 0 0 0 0 0 0 0 0 0 0 0 0 0 0 0 0 0 0 0 0 0 0 0 0 0 0 0 0
0 0 0 0 0 0 0 0 0 0 0 0 0 0 0 0 0 0 0 0 0 0 0 0 0 0 0 0 0 0 0 0 0 0 0 0 0 0 0 0 0 0 0 0
0 0 0 0 0 0 0 0 0 0 0 0 0 0 0 0 0 0 0 0 0 0 0 0 0 0 0 0 0 0 0 0 0 0 0 0 0 0 0 0 0 0 0 0
0 0 0 0 0 0 0 0 0 0 0 0 0 0 0 0 0 0 0 0 0 0 0 0 0 0 0 0 0 0 0 0 0 0 0 0 0 0 0 0 0 0 0 0
0 0 0 0 0 0 0 0 0 0 0 0 0 0 0 0 0 0 0 0 0 0 0 0 0 0 0 0 0 0 0 0 0 0 0 0 0 0 0 0 0 0 0 0
0 0 0 0 0 0 0 0 0 0 0 0 0 0 0 0 0 0 0 0 0 0 0 0 0 0 0 0 0 0 0 0 0 0 0 0 0 0 0 0 0 0 0 0
0 0 0 0 0 0 0 0 0 0 0 0 0 0 0 0 0 0 0 0 0 0 0 0 0 0 0 0 0 0 0 0 0 0 0 0 0 0 0 0 0 0 0 0
0 0 0 0 0 0 0 0 0 0 0 0 0 0 0 0 0 0 0 0 0 0 0 0 0 0 0 0 0 0 0 0 0 0 0 0 0 0 0 0 0 0 0 0
-1 0 0 0 0 0 0 0 0 0 0 0 0 0 0 0 0 0 0 0 0 0 0 0 0 0 0 0 0 0 0 0 0 0 0 0 0 0 0 0 0 0 0 0
0 -8 0 0 0 0 0 0 0 0 0 0 0 0 0 0 0 0 0 0 0 0 0 0 0 0 0 0 0 0 0 0 0 0 0 0 0 0 0 0 0 0 0 0
-7 -6 0 0 0 0 0 0 0 0 -2 -5 -4 -2 0 0 0 0 0 0 0 0 0 0 0 0 0 0 0 0 0 0 0 0 0 0 0 0 0 0 0 0 0 0
0 -11 -2 0 0 0 0 -2 -14 -4 -1 0 -18 0 0 0 0 0 0 0 0 0 0 0 0 0 0 0 0 0 0 0 0 0 0 0 0 0 0 0 0 0 0 0
-15 -4 -4 0 0 0 0 0 -42 -22 -16 -13 -5 -11 0 0 0 0 0 0 0 0 0 0 0 0 0 0 0 0 0 0 0 0 0 0 0 0 0 0 0 0 0 0
-33 -3 -1 0 0 -11 0 0 -5 -13 -5 -8 -3 0 0 0 0 0 0 0 0 0 0 0 0 0 0 0 0 0 0 0 0 0 0 0 0 0 0 0 0 0 0 0
-7 -4 -4 -1 0 0 0 -1 0 0 0 -8 0 0 0 0 0 0 0 0 0 0 0 0 0 0 0 0 0 0 0 0 0 0 0 0 0 0 0 0 0 0 0 0
-6 -2 -4 0 0 0 0 0 0 0 0 0 0 0 0 0 0 0 0 0 0 0 0 0 0 0 0 0 0 0 0 0 0 0 0 0 0 0 0 0 0 0 0 0
-1 0 -1 -1 -3 -5 0 0 0 0 0 0 0 0 0 0 0 0 0 0 0 0 0 0 0 0 0 0 0 0 0 0 0 0 0 0 0 0 0 0 0 0 0 0
-2 0 0 -2 -5 -2 0 0 0 0 0 0 0 0 0 0 0 0 0 0 0 0 0 0 0 0 0 0 0 0 0 0 0 0 0 0 0 0 0 0 0 0 0 0
0 0 -3 -3 -2 0 0 0 0 0 0 0 0 0 0 0 0 0 0 0 0 0 0 0 0 0 0 0 0 0 0 0 0 0 0 0 0 0 0 0 0 0 0 0
0 0 0 0 0 0 0 0 0 0 0 0 0 0 0 0 0 0 0 0 0 0 0 0 0 0 0 0 0 0 0 0 0 0 0 0 0 0 0 0 0 0 0 0
0 0 0 0 -1 -3 0 0 0 0 0 0 0 0 0 0 0 0 0 0 0 0 0 0 0 0 0 0 0 0 0 0 0 0 0 0 0 0 0 0 0 0 0 0
0 0 0 0 0 0 0 0 0 0 0 0 0 0 0 0 0 0 0 0 0 0 0 0 0 0 0 0 0 0 0 0 0 0 0 0 0 0 0 0 0 0 0 0
0 0 0 0 0 0 0 0 0 0 0 0 0 0 0 0 0 0 0 0 0 0 0 0 0 0 0 0 0 0 0 0 0 0 0 0 0 0 0 0 0 0 0 0
0 0 0 -1 0 0 0 0 0 0 0 0 0 0 0 0 0 0 0 0 0 0 0 0 0 0 0 0 0 0 0 0 0 0 0 0 0 0 0 0 0 0 0 0
0 0 0 0 0 0 0 0 0 0 0 0 0 0 0 0 0 0 0 0 0 0 0 0 0 0 0 0 0 0 0 0 0 0 0 0 0 0 0 0 0 0 0 0
0 0 0 0 0 0 0 0 0 0 0 0 0 0 0 0 0 0 0 0 0 0 0 0 0 0 0 0 0 0 0 0 0 0 0 0 0 0 0 0 0 0 0 0
Wind_Speed
22 25 27 27 24 28 37 40 45 39 39 45 48 50 46 41 43 44 40 37 34 30 29 28 28 30 31 30 28 25 21 20 16 17 19 22 24 25 24 23 22 21 21 22
26 29 27 30 30 31 33 37 42 42 37 38 46 51 48 37 30 32 32 31 26 24 26 28 30 30 32 33 32 28 23 19 17 19 21 21 24 25 25 25 25 24 23 24
31 33 28 27 28 30 32 36 40 42 42 40 44 48 35 36 30 31 27 20 19 24 28 30 31 32 33 34 34 32 30 23 16 15 19 21 27 27 27 29 30 29 28 27
28 26 25 25 29 30 40 34 36 41 42 48 40 54 42 31 30 23 22 19 24 28 29 29 30 31 33 34 34 34 30 26 23 18 18 18 23 26 29 29 29 31 31 31
28 26 26 29 31 27 37 31 35 37 41 44 39 42 36 31 27 14 20 24 28 29 30 30 30 31 32 34 37 34 31 28 25 21 21 23 24 23 24 26 27 27 27 30
32 28 30 32 32 30 28 35 36 36 38 46 41 36 37 27 21 20 22 26 28 29 30 29 30 34 37 35 33 33 32 31 30 27 24 23 24 26 26 27 27 27 27 27
39 36 32 29 35 31 32 38 44 43 40 47 36 40 39 31 31 31 32 30 33 34 33 32 34 34 35 35 35 33 32 33 32 30 28 27 27 28 31 31 30 29 29 29
43 50 33 29 33 37 33 31 37 51 55 57 41 50 44 27 29 33 35 36 33 31 32 33 34 33 32 33 34 34 33 32 32 32 31 30 31 30 32 33 33 33 33 32
46 49 32 31 30 29 33 38 36 46 48 56 57 54 50 35 37 34 32 31 33 33 34 34 34 34 34 34 34 34 34 33 33 33 33 33 33 33 34 34 35 36 35 36
35 47 38 34 30 31 33 35 46 42 56 63 55 57 54 40 39 36 36 35 33 33 35 36 36 36 35 35 35 34 35 35 35 35 35 34 35 35 35 36 36 36 36 35
36 40 50 37 42 49 44 44 40 41 44 54 58 53 43 46 38 36 35 36 35 36 37 38 38 36 36 36 37 38 38 38 38 38 39 37 37 37 37 36 37 37 36 35
35 38 49 54 41 34 33 38 38 48 51 49 56 61 33 30 30 33 36 36 33 35 38 39 39 39 39 40 40 39 39 39 40 40 41 39 39 40 40 40 39 38 38 38
30 35 48 49 42 35 38 38 40 42 42 52 54 42 22 28 32 32 35 34 34 35 38 39 38 40 40 40 40 40 40 40 41 42 42 42 43 44 43 43 42 41 41 40
30 39 46 56 51 45 45 42 40 43 51 54 54 57 51 41 39 38 36 35 37 38 39 40 40 40 41 41 43 43 43 42 42 43 43 43 43 44 45 45 46 45 45 44
31 47 47 47 46 48 52 52 51 54 54 58 60 59 55 52 48 44 40 39 38 38 40 40 41 41 42 43 44 44 45 45 45 47 47 46 45 46 47 47 48 48 47 47
36 50 51 59 55 53 55 52 54 54 54 57 58 61 51 42 39 41 40 41 40 40 41 41 42 43 44 45 46 47 47 48 49 50 50 49 49 49 50 50 50 51 51 50
43 46 49 62 49 52 58 52 53 54 54 56 63 57 41 41 40 39 38 39 38 40 42 44 45 46 47 47 48 49 50 50 51 52 53 54 54 54 54 55 55 55 54 53
44 46 47 59 52 67 55 45 46 52 53 48 43 39 36 37 37 36 35 39 38 40 43 46 47 48 49 50 51 51 52 53 54 55 56 56 57 58 58 58 58 59 58 58
37 44 51 56 59 61 58 50 49 49 53 36 33 33 35 35 36 41 36 38 38 39 43 45 45 48 50 50 51 53 55 55 56 57 59 58 58 61 62 64 64 62 62 63
33 34 42 45 55 61 47 37 31 31 47 28 28 34 39 37 48 47 41 36 36 37 40 45 46 48 48 52 53 55 57 58 59 58 59 59 59 62 65 66 67 67 65 66
40 38 43 44 49 46 35 30 26 41 42 23 34 40 41 40 40 43 41 39 37 38 41 42 46 48 49 52 53 57 59 61 60 60 61 63 64 66 66 68 68 69 69 69
38 39 39 36 41 47 25 24 31 28 32 39 41 40 41 38 39 37 37 39 38 38 41 45 47 49 51 52 53 59 62 61 61 63 66 67 67 67 68 69 69 68 69 70
37 32 36 32 33 29 23 28 27 40 43 44 41 38 35 35 35 37 38 36 37 40 43 45 47 51 53 54 55 61 64 63 66 68 69 69 68 68 68 69 70 69 67 68
35 32 36 37 35 36 37 33 34 36 35 36 34 34 34 35 35 36 36 38 41 43 45 46 49 54 58 57 58 59 62 63 65 68 69 68 68 67 65 64 64 64 63 64
29 30 32 36 34 41 36 32 30 32 34 33 32 31 32 32 35 36 38 40 41 43 44 46 50 54 58 59 59 58 59 59 62 64 64 63 61 61 61 59 59 59 59 58
27 30 35 40 36 35 38 35 36 35 34 29 30 32 31 32 34 37 39 39 41 44 46 49 51 53 55 55 57 57 56 57 56 55 54 53 54 54 54 56 58 54 58 59
Wind_Direction
307 302 301 304 302 305 309 307 305 312 315 307 303 302 312 317 309 300 304 311 315 320 327 333 331 329 323 328 326 318 311 297 280 271 265 259 258 264 261 259 255 251 251 246
303 294 300 306 307 306 306 307 307 309 315 312 305 298 300 317 328 320 318 321 325 332 338 336 336 335 331 329 326 325 320 313 298 288 281 277 273 269 268 267 265 257 252 250
292 302 307 303 306 306 306 306 308 307 312 311 308 300 314 321 325 325 326 329 341 338 333 334 333 335 335 334 332 324 316 317 316 305 297 289 286 279 275 273 273 270 264 258
301 308 305 304 304 307 303 309 308 307 308 303 315 300 311 318 321 329 340 344 336 334 337 335 335 338 338 338 338 338 331 323 318 314 307 297 292 286 283 279 276 273 268 264
304 307 306 302 305 310 304 312 310 308 305 305 309 306 314 319 316 321 334 336 335 336 341 339 337 339 341 340 339 338 340 336 331 322 311 304 298 297 295 291 285 279 274 265
298 308 303 302 305 305 307 306 307 305 304 296 304 303 309 318 322 316 328 333 334 336 336 343 342 340 340 346 347 346 343 338 333 327 320 313 307 301 296 294 290 286 281 274
301 300 301 302 300 303 299 300 300 297 296 294 302 298 296 303 308 309 312 321 325 327 329 332 336 337 337 338 341 344 345 342 338 333 327 320 313 306 300 295 292 288 285 281
298 296 299 302 297 299 296 295 292 295 293 295 298 290 296 306 310 312 314 314 318 321 326 329 333 335 337 338 340 341 341 341 339 336 330 324 316 310 303 299 294 290 287 285
298 293 307 304 304 303 298 291 300 294 292 292 290 289 291 294 302 307 312 317 319 320 322 325 327 329 330 331 332 334 334 335 333 329 327 331 321 312 307 304 299 293 289 285
302 297 301 305 305 299 295 304 295 295 292 287 289 288 288 295 297 302 307 311 316 318 320 320 322 321 323 324 325 326 327 327 327 326 326 325 324 322 312 307 304 299 296 290
303 297 294 299 296 295 294 292 292 294 289 291 291 288 297 297 298 301 305 310 314 317 317 318 318 318 320 320 320 321 321 321 320 319 318 318 318 318 316 313 309 302 299 296
302 300 293 292 300 301 298 294 292 289 292 288 290 290 299 299 303 305 305 308 312 315 316 316 317 317 317 316 318 318 319 319 318 316 314 313 312 310 311 310 309 309 303 298
309 301 298 298 298 301 297 297 291 291 292 288 289 294 303 302 301 303 305 305 307 312 315 316 316 316 316 317 317 317 317 316 317 317 314 313 310 309 308 308 306 306 305 300
307 295 291 291 294 301 296 296 296 294 291 292 287 292 294 295 296 300 301 301 303 306 310 313 313 313 314 314 314 315 315 316 316 317 317 316 314 312 310 308 308 306 302 299
301 294 295 295 295 294 293 292 292 289 290 289 292 291 293 294 295 297 299 300 301 303 307 309 310 310 312 312 312 313 314 314 314 312 312 312 313 312 310 308 307 305 303 300
302 296 297 293 294 293 291 290 289 290 291 290 291 291 296 298 296 296 297 300 299 302 305 307 308 309 309 311 310 310 310 311 311 310 309 309 308 306 307 307 305 303 301 299
297 298 298 293 298 297 290 291 292 291 290 292 291 295 299 297 297 297 298 301 298 303 306 307 309 309 308 309 311 309 309 309 308 306 306 306 306 305 304 303 301 299 298 298
295 296 296 294 297 288 295 300 297 293 294 296 296 298 301 301 302 301 301 302 299 302 306 308 309 309 309 308 308 309 309 308 306 304 303 303 303 302 302 301 300 296 295 294
288 292 294 292 291 294 295 298 296 295 295 297 298 301 305 306 305 301 304 303 300 302 307 310 312 311 310 310 310 309 308 308 306 304 303 302 301 300 299 298 297 296 293 291
302 295 291 297 295 294 303 308 310 308 296 302 301 306 307 307 300 303 310 308 306 304 308 311 313 313 312 312 312 310 308 308 306 305 304 302 301 299 297 296 294 293 292 289
303 301 293 293 294 298 306 308 311 297 302 309 308 306 307 304 304 308 309 308 308 308 309 314 314 312 313 314 313 309 309 307 307 306 304 302 300 298 297 295 293 292 290 288
302 303 300 301 299 300 316 313 302 309 309 310 309 308 307 307 309 311 312 312 312 313 314 315 315 314 315 316 315 311 309 310 309 306 304 302 300 298 296 294 293 291 288 286
300 296 301 298 301 312 313 309 306 308 307 307 308 311 311 310 311 313 314 316 316 316 316 317 316 316 316 317 316 312 311 311 309 306 304 302 301 298 296 293 291 289 287 284
300 300 296 299 300 301 303 304 306 308 308 310 312 313 312 310 313 315 316 317 317 317 318 319 318 317 316 317 316 315 314 312 310 307 305 304 302 299 297 293 291 288 286 284
302 308 303 300 304 306 306 306 306 307 310 309 310 313 314 314 314 316 316 318 319 320 321 321 321 320 319 319 319 319 317 316 313 310 308 306 304 302 299 296 292 289 286 284
298 293 298 299 307 306 306 309 309 308 310 311 311 312 314 315 316 317 318 320 321 322 323 323 323 323 323 323 323 323 322 320 318 316 315 312 308 306 303 299 295 292 287 284